Location: Firnhaberau
(48.4049°N, 10.8963°E)
Time: 19:13:58
(UTC+00:00)

COSMOS 2428 - Pass Details

Date: 07 June 2020
Orbit: 845 x 858 km, 70.9° (Epoch: 10 July)

Event Time Altitude Azimuth Distance (km) Brightness Sun altitude
Rises 02:07:01 0° 173° (S) 3,395 5.4 -9.1°
Reaches altitude 10° 02:09:43 10° 162° (SSE) 2,463 4.8 -8.8°
Maximum altitude 02:14:31 29° 104° (ESE) 1,499 4.3 -8.3°
Drops below altitude 10° 02:19:19 10° 46° (NE) 2,475 6.9 -7.8°
Sets 02:22:03 0° 36° (NE) 3,415 8.3 -7.5°
